• In Czech Republic
  • List of Countries
  • For 7 days
  • Water Temperature
  • Satellite Maps
  • Weather Map
  • Weather Widgets
  • user-avatar
    Login

    Hourly Weather Wierciochy

    Today, 21 April, Saturday

    Time Temperature Precipitation Wind Pressure Humidity
    00:00 +12°C° 0 mm 4 mps 748 mmHg 70%
    01:00 +12°C° 0 mm 5 mps 747 mmHg 69%
    02:00 +12°C° 0 mm 5 mps 746 mmHg 68%
    03:00 +12°C° 0 mm 5 mps 745 mmHg 70%
    04:00 +12°C° 0 mm 5 mps 745 mmHg 71%
    05:00 +12°C° 0 mm 5 mps 744 mmHg 73%
    06:00 +13°C° 0 mm 6 mps 744 mmHg 73%
    07:00 +14°C° 0 mm 6 mps 743 mmHg 73%
    08:00 +15°C° 0 mm 7 mps 743 mmHg 72%
    09:00 +15°C° 0 mm 7 mps 743 mmHg 67%
    10:00 +16°C° 0 mm 8 mps 743 mmHg 62%
    11:00 +17°C° 0 mm 8 mps 743 mmHg 56%
    12:00 +16°C° 0 mm 8 mps 743 mmHg 53%
    13:00 +16°C° 0 mm 9 mps 744 mmHg 49%
    14:00 +16°C° 0 mm 9 mps 744 mmHg 45%
    15:00 +15°C° 0 mm 8 mps 744 mmHg 46%
    16:00 +13°C° 0 mm 8 mps 744 mmHg 47%
    17:00 +14°C° 0 mm 7 mps 745 mmHg 49%
    18:00 +11°C° 0 mm 6 mps 745 mmHg 55%
    19:00 +9°C° 0 mm 5 mps 745 mmHg 60%
    20:00 +8°C° 0 mm 4 mps 746 mmHg 66%
    21:00 +7°C° 0 mm 4 mps 746 mmHg 70%
    22:00 +6°C° 0 mm 4 mps 746 mmHg 73%
    23:00 +6°C° 0 mm 4 mps 746 mmHg 77%

    Tomorrow, 22 April, Sunday

    Time Temperature Precipitation Wind Pressure Humidity
    00:00 +5°C° 0 mm 3 mps 746 mmHg 78%
    01:00 +5°C° 0 mm 3 mps 746 mmHg 80%
    02:00 +4°C° 0 mm 3 mps 747 mmHg 81%
    03:00 +4°C° 0 mm 3 mps 746 mmHg 83%
    04:00 +4°C° 0 mm 3 mps 746 mmHg 85%
    05:00 +4°C° 0 mm 3 mps 746 mmHg 87%
    06:00 +5°C° 0 mm 3 mps 746 mmHg 82%
    07:00 +6°C° 0 mm 4 mps 746 mmHg 77%
    08:00 +7°C° 0 mm 4 mps 747 mmHg 72%
    09:00 +10°C° 0 mm 4 mps 747 mmHg 64%
    10:00 +12°C° 0 mm 4 mps 747 mmHg 57%
    11:00 +14°C° 0 mm 5 mps 747 mmHg 49%
    12:00 +15°C° 0 mm 5 mps 747 mmHg 47%
    13:00 +15°C° 0 mm 5 mps 747 mmHg 46%
    14:00 +16°C° 0 mm 5 mps 747 mmHg 44%
    15:00 +16°C° 0 mm 5 mps 746 mmHg 46%
    16:00 +15°C° 0 mm 5 mps 746 mmHg 48%
    17:00 +15°C° 0 mm 5 mps 746 mmHg 49%
    18:00 +13°C° 0 mm 4 mps 746 mmHg 57%
    19:00 +11°C° 0 mm 4 mps 747 mmHg 64%
    20:00 +9°C° 0 mm 3 mps 747 mmHg 71%
    21:00 +8°C° 0 mm 3 mps 747 mmHg 73%
    22:00 +7°C° 0 mm 2 mps 747 mmHg 76%
    23:00 +6°C° 0 mm 2 mps 747 mmHg 78%

    Day after tomorrow, 23 April, Monday

    Time Temperature Precipitation Wind Pressure Humidity
    00:00 +6°C° 0 mm 2 mps 747 mmHg 78%
    01:00 +6°C° 0 mm 1 mps 747 mmHg 78%
    02:00 +6°C° 0 mm 1 mps 748 mmHg 77%
    03:00 +5°C° 0 mm 1 mps 747 mmHg 78%
    04:00 +5°C° 0 mm 1 mps 747 mmHg 79%
    05:00 +5°C° 0 mm 1 mps 747 mmHg 80%
    06:00 +7°C° 0 mm 1 mps 747 mmHg 75%
    07:00 +8°C° 0 mm 1 mps 747 mmHg 70%
    08:00 +9°C° 0 mm 2 mps 747 mmHg 65%
    09:00 +10°C° 0 mm 2 mps 747 mmHg 59%
    10:00 +13°C° 0 mm 2 mps 747 mmHg 53%
    11:00 +14°C° 0 mm 3 mps 747 mmHg 46%
    12:00 +16°C° 0 mm 3 mps 746 mmHg 45%
    13:00 +17°C° 0 mm 3 mps 746 mmHg 43%
    14:00 +18°C° 0 mm 4 mps 745 mmHg 41%
    15:00 +18°C° 0 mm 4 mps 744 mmHg 43%
    16:00 +18°C° 0 mm 4 mps 744 mmHg 45%
    17:00 +18°C° 0 mm 4 mps 743 mmHg 48%
    18:00 +16°C° 0.5 mm 3 mps 743 mmHg 57%
    19:00 +14°C° 0.5 mm 3 mps 743 mmHg 67%
    20:00 +12°C° 0.5 mm 3 mps 743 mmHg 77%
    21:00 +12°C° 0.2 mm 3 mps 742 mmHg 80%
    22:00 +11°C° 0.2 mm 3 mps 742 mmHg 82%
    23:00 +11°C° 0.2 mm 4 mps 742 mmHg 85%

    24 April, Tuesday

    Time Temperature Precipitation Wind Pressure Humidity
    00:00 +11°C° 0.2 mm 4 mps 742 mmHg 86%
    01:00 +10°C° 0.2 mm 4 mps 742 mmHg 88%
    02:00 +10°C° 0.2 mm 4 mps 742 mmHg 90%
    03:00 +8°C° 0.1 mm 4 mps 742 mmHg 91%
    04:00 +7°C° 0.1 mm 4 mps 742 mmHg 93%
    05:00 +6°C° 0.1 mm 4 mps 743 mmHg 94%
    06:00 +6°C° 0 mm 5 mps 743 mmHg 90%
    07:00 +7°C° 0 mm 5 mps 743 mmHg 87%
    08:00 +8°C° 0 mm 5 mps 744 mmHg 83%
    09:00 +8°C° 0 mm 5 mps 744 mmHg 79%
    10:00 +9°C° 0 mm 5 mps 744 mmHg 74%
    11:00 +10°C° 0 mm 5 mps 744 mmHg 70%
    12:00 +12°C° 0 mm 5 mps 744 mmHg 66%
    13:00 +13°C° 0 mm 5 mps 744 mmHg 62%
    14:00 +13°C° 0 mm 5 mps 744 mmHg 57%
    15:00 +14°C° 0 mm 5 mps 744 mmHg 57%
    16:00 +14°C° 0 mm 5 mps 744 mmHg 56%
    17:00 +14°C° 0 mm 5 mps 744 mmHg 55%
    18:00 +13°C° 0.1 mm 4 mps 744 mmHg 62%
    19:00 +12°C° 0.1 mm 4 mps 743 mmHg 68%
    20:00 +11°C° 0.1 mm 3 mps 743 mmHg 75%
    21:00 +10°C° 0.5 mm 4 mps 743 mmHg 79%
    22:00 +9°C° 0.5 mm 5 mps 743 mmHg 84%
    23:00 +9°C° 0.5 mm 5 mps 742 mmHg 89%

    25 April, Wednesday

    Time Temperature Precipitation Wind Pressure Humidity
    00:00 +8°C° 0.1 mm 5 mps 742 mmHg 89%
    01:00 +8°C° 0.1 mm 5 mps 742 mmHg 89%
    02:00 +8°C° 0.1 mm 5 mps 742 mmHg 89%
    03:00 +7°C° 0 mm 5 mps 742 mmHg 89%
    04:00 +6°C° 0 mm 5 mps 742 mmHg 89%
    05:00 +6°C° 0 mm 5 mps 742 mmHg 89%
    06:00 +6°C° 0 mm 5 mps 743 mmHg 84%
    07:00 +7°C° 0 mm 6 mps 743 mmHg 80%
    08:00 +6°C° 0 mm 7 mps 743 mmHg 75%
    09:00 +9°C° 0 mm 7 mps 743 mmHg 68%
    10:00 +10°C° 0 mm 7 mps 744 mmHg 61%
    11:00 +11°C° 0 mm 8 mps 744 mmHg 54%
    12:00 +12°C° 0 mm 7 mps 744 mmHg 51%
    13:00 +12°C° 0 mm 7 mps 744 mmHg 48%
    14:00 +14°C° 0 mm 7 mps 744 mmHg 46%
    15:00 +14°C° 0 mm 6 mps 744 mmHg 46%
    16:00 +14°C° 0 mm 6 mps 744 mmHg 47%
    17:00 +14°C° 0 mm 5 mps 744 mmHg 48%
    18:00 +12°C° 0 mm 4 mps 743 mmHg 55%
    19:00 +10°C° 0 mm 2 mps 743 mmHg 62%
    20:00 +10°C° 0 mm 1 mps 743 mmHg 69%
    21:00 +10°C° 0 mm 1 mps 743 mmHg 70%
    22:00 +8°C° 0 mm 2 mps 742 mmHg 71%
    23:00 +8°C° 0 mm 2 mps 742 mmHg 73%

    26 April, Thursday

    Time Temperature Precipitation Wind Pressure Humidity
    00:00 +9°C° 0.1 mm 3 mps 741 mmHg 76%
    01:00 +8°C° 0.1 mm 4 mps 740 mmHg 79%
    02:00 +9°C° 0.1 mm 5 mps 739 mmHg 81%
    03:00 +9°C° 0.1 mm 5 mps 739 mmHg 85%
    04:00 +9°C° 0.1 mm 5 mps 738 mmHg 88%
    05:00 +9°C° 0.1 mm 5 mps 737 mmHg 92%
    06:00 +10°C° 0.1 mm 5 mps 737 mmHg 90%
    07:00 +12°C° 0.1 mm 5 mps 737 mmHg 89%
    08:00 +13°C° 0.1 mm 5 mps 737 mmHg 87%
    09:00 +14°C° 0.1 mm 5 mps 738 mmHg 81%
    10:00 +15°C° 0.1 mm 6 mps 738 mmHg 74%
    11:00 +16°C° 0.1 mm 7 mps 739 mmHg 67%
    12:00 +16°C° 0.1 mm 7 mps 739 mmHg 65%
    13:00 +16°C° 0.1 mm 7 mps 739 mmHg 62%
    14:00 +16°C° 0.1 mm 7 mps 740 mmHg 59%
    15:00 +15°C° 0 mm 7 mps 740 mmHg 60%
    16:00 +15°C° 0 mm 6 mps 740 mmHg 60%
    17:00 +14°C° 0 mm 5 mps 740 mmHg 61%
    18:00 +13°C° 0 mm 4 mps 740 mmHg 66%
    19:00 +11°C° 0 mm 3 mps 741 mmHg 72%
    20:00 +10°C° 0 mm 2 mps 741 mmHg 77%
    21:00 +9°C° 0 mm 2 mps 741 mmHg 80%
    22:00 +8°C° 0 mm 2 mps 742 mmHg 82%
    23:00 +8°C° 0 mm 2 mps 742 mmHg 85%
    Show more